Location: Zagreb
(45.8000°N, 16.0000°E)
Time: 13:52:55
(UTC+02:00)

Vanguard 1 - Pass Details

Date: 16 August 2022
Orbit: 649 x 3832 km, 34.2° (Epoch: 25 September)

Event Time Altitude Azimuth Distance (km) Brightness Sun altitude
Rises 05:23:05 0° 248° (WSW) 5,532 - -6.2°
Exits shadow 05:25:06 - 245° (WSW) 5,095 13.0 -5.9°
Reaches altitude 10° 05:26:11 10° 244° (WSW) 4,876 12.9 -5.7°
Maximum altitude 05:41:05 57° 170° (S) 3,642 12.9 -3.4°
Drops below altitude 10° 06:03:18 10° 101° (E) 6,938 15.5 0.2°
Sets 06:08:48 0° 98° (E) 7,909 16.0 1.1°
